When you browse on this site, cookies collect data to enhance your experience and personalize the content and advertising you see.
Visit our Privacy Policy to learn more. By continuing to use the site, you agree to this use of cookies and data.
  • In Latvia
  • List of Countries
  • For 7 days
  • Water Temperature
  • Weather Map
  • Weather Widgets
  • user-avatar
    Login

    Hourly Weather Salawaj

    Today, 18 January, Saturday

    Time Temperature Precipitation Wind Pressure Humidity
    00:00 +21°C° 0 mm 1 mps 745 mmHg 89%
    01:00 +21°C° 0 mm 1 mps 745 mmHg 91%
    02:00 +20°C° 0 mm 1 mps 745 mmHg 92%
    03:00 +20°C° 0 mm 1 mps 744 mmHg 92%
    04:00 +20°C° 0 mm 1 mps 744 mmHg 93%
    05:00 +20°C° 0 mm 1 mps 744 mmHg 92%
    06:00 +20°C° 0 mm 1 mps 745 mmHg 91%
    07:00 +20°C° 0 mm 1 mps 745 mmHg 90%
    08:00 +24°C° 0 mm 1 mps 745 mmHg 75%
    09:00 +27°C° 0 mm 1 mps 745 mmHg 61%
    10:00 +31°C° 0 mm 1 mps 746 mmHg 47%
    11:00 +33°C° 0 mm 1 mps 745 mmHg 41%
    12:00 +34°C° 0 mm 1 mps 744 mmHg 35%
    13:00 +36°C° 0 mm 1 mps 743 mmHg 29%
    14:00 +36°C° 0 mm 1 mps 743 mmHg 29%
    15:00 +35°C° 0 mm 1 mps 742 mmHg 29%
    16:00 +35°C° 0 mm 1 mps 742 mmHg 29%
    17:00 +32°C° 0 mm 1 mps 742 mmHg 40%
    18:00 +29°C° 0 mm 1 mps 742 mmHg 50%
    19:00 +26°C° 0 mm 1 mps 743 mmHg 60%
    20:00 +24°C° 0 mm 1 mps 743 mmHg 67%
    21:00 +23°C° 0 mm 1 mps 744 mmHg 74%
    22:00 +22°C° 0 mm 1 mps 744 mmHg 81%
    23:00 +22°C° 0 mm 1 mps 744 mmHg 83%

    Tomorrow, 19 January, Sunday

    Time Temperature Precipitation Wind Pressure Humidity
    00:00 +21°C° 0 mm 1 mps 744 mmHg 86%
    01:00 +21°C° 0 mm 1 mps 744 mmHg 88%
    02:00 +20°C° 0 mm 1 mps 744 mmHg 89%
    03:00 +20°C° 0 mm 1 mps 744 mmHg 90%
    04:00 +20°C° 0 mm 1 mps 743 mmHg 90%
    05:00 +20°C° 0 mm 1 mps 744 mmHg 89%
    06:00 +20°C° 0 mm 1 mps 744 mmHg 88%
    07:00 +20°C° 0 mm 1 mps 745 mmHg 87%
    08:00 +24°C° 0 mm 1 mps 745 mmHg 73%
    09:00 +27°C° 0 mm 1 mps 745 mmHg 60%
    10:00 +31°C° 0 mm 1 mps 746 mmHg 46%
    11:00 +32°C° 0 mm 1 mps 745 mmHg 41%
    12:00 +34°C° 0 mm 1 mps 744 mmHg 36%
    13:00 +36°C° 0 mm 1 mps 744 mmHg 31%
    14:00 +36°C° 0 mm 1 mps 743 mmHg 31%
    15:00 +35°C° 0 mm 1 mps 743 mmHg 32%
    16:00 +35°C° 0 mm 1 mps 742 mmHg 32%
    17:00 +32°C° 0 mm 1 mps 743 mmHg 43%
    18:00 +29°C° 0 mm 1 mps 743 mmHg 54%
    19:00 +26°C° 0 mm 1 mps 744 mmHg 65%
    20:00 +25°C° 0 mm 1 mps 744 mmHg 71%
    21:00 +24°C° 0 mm 1 mps 745 mmHg 77%
    22:00 +22°C° 0 mm 1 mps 745 mmHg 83%
    23:00 +22°C° 0 mm 1 mps 745 mmHg 84%

    Day after tomorrow, 20 January, Monday

    Time Temperature Precipitation Wind Pressure Humidity
    00:00 +21°C° 0 mm 1 mps 745 mmHg 86%
    01:00 +21°C° 0 mm 1 mps 744 mmHg 88%
    02:00 +20°C° 0 mm 1 mps 744 mmHg 88%
    03:00 +20°C° 0 mm 1 mps 744 mmHg 89%
    04:00 +20°C° 0 mm 1 mps 744 mmHg 90%
    05:00 +20°C° 0 mm 1 mps 745 mmHg 88%
    06:00 +20°C° 0 mm 1 mps 745 mmHg 87%
    07:00 +20°C° 0 mm 1 mps 746 mmHg 86%
    08:00 +24°C° 0 mm 1 mps 746 mmHg 73%
    09:00 +27°C° 0 mm 1 mps 746 mmHg 60%
    10:00 +31°C° 0 mm 1 mps 747 mmHg 46%
    11:00 +33°C° 0 mm 1 mps 746 mmHg 42%
    12:00 +35°C° 0 mm 1 mps 745 mmHg 37%
    13:00 +36°C° 0 mm 1 mps 745 mmHg 33%
    14:00 +36°C° 0 mm 1 mps 744 mmHg 33%
    15:00 +35°C° 0 mm 1 mps 744 mmHg 34%
    16:00 +35°C° 0 mm 1 mps 743 mmHg 34%
    17:00 +32°C° 0 mm 1 mps 743 mmHg 43%
    18:00 +29°C° 0 mm 1 mps 744 mmHg 53%
    19:00 +26°C° 0 mm 1 mps 744 mmHg 62%
    20:00 +25°C° 0 mm 1 mps 745 mmHg 68%
    21:00 +24°C° 0 mm 1 mps 745 mmHg 74%
    22:00 +23°C° 0 mm 1 mps 746 mmHg 80%
    23:00 +22°C° 0 mm 1 mps 746 mmHg 81%

    21 January, Tuesday

    Time Temperature Precipitation Wind Pressure Humidity
    00:00 +22°C° 0 mm 1 mps 745 mmHg 83%
    01:00 +21°C° 0 mm 1 mps 745 mmHg 85%
    02:00 +21°C° 0 mm 1 mps 745 mmHg 86%
    03:00 +21°C° 0 mm 1 mps 745 mmHg 86%
    04:00 +20°C° 0 mm 1 mps 745 mmHg 87%
    05:00 +21°C° 0 mm 1 mps 745 mmHg 86%
    06:00 +21°C° 0 mm 1 mps 745 mmHg 85%
    07:00 +21°C° 0 mm 1 mps 746 mmHg 84%
    08:00 +24°C° 0 mm 1 mps 746 mmHg 71%
    09:00 +28°C° 0 mm 1 mps 746 mmHg 58%
    10:00 +32°C° 0 mm 1 mps 747 mmHg 45%
    11:00 +33°C° 0 mm 1 mps 746 mmHg 41%
    12:00 +35°C° 0 mm 1 mps 745 mmHg 37%
    13:00 +37°C° 0 mm 1 mps 744 mmHg 33%
    14:00 +36°C° 0 mm 1 mps 744 mmHg 33%
    15:00 +36°C° 0 mm 1 mps 743 mmHg 34%
    16:00 +37°C° 0 mm 2 mps 743 mmHg 34%
    17:00 +33°C° 0 mm 1 mps 743 mmHg 43%
    18:00 +30°C° 0 mm 1 mps 744 mmHg 52%
    19:00 +28°C° 0 mm 1 mps 744 mmHg 61%
    20:00 +26°C° 0 mm 1 mps 744 mmHg 67%
    21:00 +25°C° 0 mm 1 mps 745 mmHg 73%
    22:00 +24°C° 0 mm 1 mps 745 mmHg 78%
    23:00 +24°C° 0 mm 1 mps 745 mmHg 81%

    22 January, Wednesday

    Time Temperature Precipitation Wind Pressure Humidity
    00:00 +23°C° 0 mm 1 mps 744 mmHg 83%
    01:00 +23°C° 0 mm 1 mps 744 mmHg 85%
    02:00 +23°C° 0 mm 1 mps 744 mmHg 85%
    03:00 +22°C° 0 mm 1 mps 744 mmHg 85%
    04:00 +22°C° 0 mm 1 mps 743 mmHg 85%
    05:00 +22°C° 0 mm 1 mps 744 mmHg 84%
    06:00 +23°C° 0 mm 1 mps 744 mmHg 82%
    07:00 +23°C° 0 mm 1 mps 745 mmHg 81%
    08:00 +24°C° 0 mm 0 mps 745 mmHg 68%
    09:00 +28°C° 0 mm 0 mps 745 mmHg 55%
    10:00 +32°C° 0 mm 0 mps 745 mmHg 43%
    11:00 +35°C° 0 mm 1 mps 744 mmHg 39%
    12:00 +36°C° 0 mm 1 mps 743 mmHg 35%
    13:00 +37°C° 0 mm 1 mps 742 mmHg 32%
    14:00 +37°C° 0 mm 1 mps 742 mmHg 32%
    15:00 +37°C° 0 mm 1 mps 741 mmHg 33%
    16:00 +36°C° 0 mm 1 mps 741 mmHg 33%
    17:00 +34°C° 0 mm 1 mps 741 mmHg 39%
    18:00 +31°C° 0 mm 1 mps 741 mmHg 45%
    19:00 +29°C° 0 mm 1 mps 742 mmHg 51%
    20:00 +28°C° 0 mm 1 mps 742 mmHg 55%
    21:00 +27°C° 0 mm 1 mps 743 mmHg 58%
    22:00 +26°C° 0 mm 1 mps 743 mmHg 62%
    23:00 +26°C° 0 mm 1 mps 743 mmHg 64%

    23 January, Thursday

    Time Temperature Precipitation Wind Pressure Humidity
    00:00 +25°C° 0 mm 1 mps 742 mmHg 67%
    01:00 +25°C° 0 mm 1 mps 742 mmHg 69%
    02:00 +24°C° 0 mm 1 mps 742 mmHg 71%
    03:00 +24°C° 0 mm 1 mps 742 mmHg 72%
    04:00 +24°C° 0 mm 1 mps 742 mmHg 73%
    05:00 +24°C° 0 mm 1 mps 742 mmHg 73%
    06:00 +24°C° 0 mm 1 mps 743 mmHg 73%
    07:00 +24°C° 0 mm 1 mps 743 mmHg 73%
    08:00 +27°C° 0 mm 1 mps 744 mmHg 62%
    09:00 +31°C° 0 mm 1 mps 744 mmHg 51%
    10:00 +34°C° 0 mm 1 mps 744 mmHg 40%
    11:00 +36°C° 0 mm 1 mps 743 mmHg 36%
    12:00 +37°C° 0 mm 1 mps 743 mmHg 33%
    13:00 +39°C° 0 mm 1 mps 742 mmHg 29%
    14:00 +37°C° 0 mm 1 mps 741 mmHg 32%
    15:00 +35°C° 0 mm 1 mps 741 mmHg 35%
    16:00 +34°C° 0 mm 1 mps 740 mmHg 38%
    17:00 +32°C° 0 mm 1 mps 741 mmHg 42%
    18:00 +31°C° 0 mm 1 mps 741 mmHg 46%
    19:00 +29°C° 0 mm 1 mps 741 mmHg 51%
    20:00 +29°C° 0 mm 1 mps 742 mmHg 52%
    21:00 +28°C° 0 mm 1 mps 742 mmHg 53%
    22:00 +28°C° 0 mm 1 mps 742 mmHg 55%
    23:00 +27°C° 0 mm 1 mps 742 mmHg 58%
    Show more